Regional Weather Roundup
Issued by NWS

Home | Current Version | Previous Version | Text Only | Print | Product List | Glossary Off
Versions: 1 2 3 4 5 6 7 8 9 10 11 12 13 14 15 16 17 18 19 20 21 22 23 24 25 26 27 28 29 30 31 32 33 34 35 36 37 38 39 40 41 42 43 44 45 46 47 48 49 50

000
ASUS45 KCYS 260610
RWRWY

WYOMING REGIONAL WEATHER ROUNDUP
NATIONAL WEATHER SERVICE CHEYENNE WY
1200 AM MDT MON SEP 26 2016

NOTE:  "FAIR" INDICATES FEW OR NO CLOUDS BELOW 12,000 FEET
WITH NO SIGNIFICANT WEATHER AND/OR OBSTRUCTIONS TO VISIBILITY.

WYZ001-260700-
YELLOWSTONE NATIONAL PARK

CITY           SKY/WX    TMP DP  RH WIND       PRES   REMARKS
LK YELLOWSTONE   N/A     33  32  96 CALM      30.58F
6HR MIN TEMP:  33; 6HR MAX TEMP:  54;

W YELLOWSTONE  NOT AVBL

$$
WYZ002>013-054>058-071-098>099-260700-
NORTHERN WYOMING

CITY           SKY/WX    TMP DP  RH WIND       PRES   REMARKS
JACKSON        FAIR      39  37  93 CALM      30.52S
CODY           FAIR      44  41  89 CALM      30.41S
GREYBULL       FAIR      49  43  80 SE5       30.37S
6HR MIN TEMP:  49; 6HR MAX TEMP:  61;

WORLAND        FAIR      45  41  86 S6        30.37F
6HR MIN TEMP:  45; 6HR MAX TEMP:  62;

SHERIDAN       FAIR      46  39  76 SW3       30.34F
6HR MIN TEMP:  42; 6HR MAX TEMP:  65;

BUFFALO        FAIR      47  38  71 W7        30.38S
6HR MIN TEMP:  46; 6HR MAX TEMP:  59;

GILLETTE       FAIR      45  39  79 S5        30.35F
6HR MIN TEMP:  42; 6HR MAX TEMP:  59;

HULETT         FAIR      43  36  75 SW8       30.35F
NEWCASTLE      FAIR      41  34  75 SE3       30.38S

$$
WYZ014>020-022>026-101>103-260700-
CENTRAL WYOMING

CITY           SKY/WX    TMP DP  RH WIND       PRES   REMARKS
BIG PINEY      FAIR      42  35  76 N14       30.50F
6HR MIN TEMP:  42; 6HR MAX TEMP:  63;

PINEDALE       FAIR      46  34  61 NW14      30.48S
DUBOIS         FAIR      50  32  50 W12G20    30.50S
LANDER         FAIR      48  40  73 S3        30.42S
6HR MIN TEMP:  47; 6HR MAX TEMP:  63;

RIVERTON       FAIR      47  42  83 NW6       30.42S
6HR MIN TEMP:  45; 6HR MAX TEMP:  60;

CASPER         FAIR      44  38  79 W3        30.40F
6HR MIN TEMP:  43; 6HR MAX TEMP:  61;

DOUGLAS        FAIR      39  36  89 CALM      30.41S
6HR MIN TEMP:  39; 6HR MAX TEMP:  62;


$$
WYZ021-027>030-104>119-260700-
SOUTHERN WYOMING

CITY           SKY/WX    TMP DP  RH WIND       PRES   REMARKS
EVANSTON       FAIR      49  31  49 S5        30.54S
6HR MIN TEMP:  48; 6HR MAX TEMP:  61;

FORT BRIDGER   FAIR      50  35  55 SW12      30.54F
ROCK SPRINGS   FAIR      48  35  60 SW10      30.49R
6HR MIN TEMP:  48; 6HR MAX TEMP:  58;

DIXON          FAIR      42  35  76 E13       30.54S
RAWLINS        FAIR      40  32  73 S7        30.49S
6HR MIN TEMP:  39; 6HR MAX TEMP:  58;

SARATOGA       FAIR      37  32  81 SE9       30.52S WCI  31
LARAMIE        FAIR      37  32  82 S7        30.50F WCI  32
6HR MIN TEMP:  36; 6HR MAX TEMP:  57;

CHEYENNE       FAIR      42  34  73 SW8       30.46F
6HR MIN TEMP:  41; 6HR MAX TEMP:  62;

TORRINGTON     FAIR      43  37  79 CALM      30.39S
6HR MIN TEMP:  42; 6HR MAX TEMP:  64;

PINE BLUFFS    FAIR      36  32  87 MISG      30.44S

$$



USA.gov is the U.S. government's official web portal to all federal, state and local government web resources and services.